Powrót do katalogu

CZ-2D DEB

AktywnySSO
NORAD 47974·DEBRIS·🇨🇳 China

Wystrzelony Sep 25, 2019 z Jiuquan Satellite Launch Center

Loading…

Następne Przeloty (najbliższe 24 godziny)

TLE

ŚwieżeSource: Space-Track

Epoka: Sep 14, 2026, 04:18 UTC

1 47974U 19063D   26257.17923789  .00000377  00000-0  12411-3 0  9997
2 47974  98.4575 333.3851 0022988 262.6563  97.2014 14.43518385300442

Śledź CZ-2D DEB w czasie rzeczywistym z AllMySat

Download on the App Store